Time,TemperatureF,DewpointF,PressureIn,WindDirection,WindDirectionDegrees,WindSpeedMPH,WindSpeedGustMPH,Humidity,HourlyPrecipIn,Conditions,Clouds,dailyrainin,SoftwareType,DateUTC
2013-09-23 00:01:00,49.3,45.0,29.97,West,261,0.0,0.0,85,0.00,RA,,0.00,WeatherDisplay:10.37,2013-09-23 04:01:00,
2013-09-23 00:06:00,49.3,45.3,29.97,West,261,0.0,0.0,86,0.00,RA,,0.00,WeatherDisplay:10.37,2013-09-23 04:06:00,
2013-09-23 00:11:00,49.3,45.3,29.97,West,261,0.0,0.0,86,0.00,,,0.00,WeatherDisplay:10.37,2013-09-23 04:11:00,
2013-09-23 00:16:00,49.3,45.3,29.97,West,261,0.0,0.0,86,0.00,,,0.00,WeatherDisplay:10.37,2013-09-23 04:16:00,
2013-09-23 00:21:00,49.3,45.3,29.97,West,261,0.0,0.0,86,0.00,,,0.00,WeatherDisplay:10.37,2013-09-23 04:21:00,
2013-09-23 00:26:00,49.4,45.4,29.97,West,261,0.0,0.0,86,0.00,,,0.00,WeatherDisplay:10.37,2013-09-23 04:26:00,
2013-09-23 00:31:00,49.4,45.7,29.97,West,261,0.0,0.0,87,0.00,,,0.00,WeatherDisplay:10.37,2013-09-23 04:31:00,
2013-09-23 00:36:00,49.3,45.6,29.97,West,261,0.0,0.0,87,0.00,,,0.00,WeatherDisplay:10.37,2013-09-23 04:36:00,
2013-09-23 00:41:00,49.3,45.6,29.97,West,261,0.0,0.0,87,0.00,,,0.00,WeatherDisplay:10.37,2013-09-23 04:41:00,
2013-09-23 00:46:00,49.3,45.6,29.97,West,261,0.0,0.0,87,0.00,,,0.00,WeatherDisplay:10.37,2013-09-23 04:46:00,
2013-09-23 00:51:00,49.2,45.5,29.97,West,261,0.0,0.0,87,0.00,,,0.00,WeatherDisplay:10.37,2013-09-23 04:51:00,
2013-09-23 00:56:00,49.2,45.5,29.97,West,261,0.0,0.0,87,0.00,,,0.00,WeatherDisplay:10.37,2013-09-23 04:56:00,
2013-09-23 01:01:00,49.2,45.5,29.97,West,261,0.0,0.0,87,0.00,,,0.00,WeatherDisplay:10.37,2013-09-23 05:01:00,
2013-09-23 01:06:00,49.2,45.5,29.97,West,261,0.0,0.0,87,0.00,,,0.00,WeatherDisplay:10.37,2013-09-23 05:06:00,
2013-09-23 01:11:00,49.2,45.8,29.97,West,261,0.0,0.0,88,0.00,,,0.00,WeatherDisplay:10.37,2013-09-23 05:11:00,
2013-09-23 01:16:00,49.2,45.8,29.97,West,261,0.0,0.0,88,0.00,,,0.00,WeatherDisplay:10.37,2013-09-23 05:16:00,
2013-09-23 01:21:00,49.2,45.8,29.98,West,261,0.0,0.0,88,0.00,CLR,,0.00,WeatherDisplay:10.37,2013-09-23 05:21:00,
2013-09-23 01:26:00,49.1,45.7,29.98,West,261,0.0,0.0,88,0.00,CLR,,0.00,WeatherDisplay:10.37,2013-09-23 05:26:00,
2013-09-23 01:31:00,49.0,45.6,29.98,West,261,0.0,0.0,88,0.00,CLR,,0.00,WeatherDisplay:10.37,2013-09-23 05:31:00,
2013-09-23 01:36:00,49.0,45.9,29.98,West,261,0.0,0.0,89,0.00,CLR,,0.00,WeatherDisplay:10.37,2013-09-23 05:36:00,
2013-09-23 01:41:00,49.0,45.9,29.98,West,261,0.0,0.0,89,0.00,CLR,,0.00,WeatherDisplay:10.37,2013-09-23 05:41:00,
2013-09-23 01:46:00,49.0,45.9,29.98,West,261,0.0,0.0,89,0.00,CLR,,0.00,WeatherDisplay:10.37,2013-09-23 05:46:00,
2013-09-23 01:51:00,49.0,46.2,29.98,West,261,0.0,0.0,90,0.00,CLR,,0.00,WeatherDisplay:10.37,2013-09-23 05:51:00,
2013-09-23 01:56:00,49.0,46.2,29.98,West,261,0.0,0.0,90,0.00,CLR,,0.00,WeatherDisplay:10.37,2013-09-23 05:56:00,
2013-09-23 02:01:00,49.0,46.2,29.98,West,261,0.0,0.0,90,0.00,CLR,,0.00,WeatherDisplay:10.37,2013-09-23 06:01:00,
2013-09-23 02:06:00,49.0,46.2,29.98,West,261,0.0,0.0,90,0.00,CLR,,0.00,WeatherDisplay:10.37,2013-09-23 06:06:00,
2013-09-23 02:11:00,49.0,46.2,29.98,West,261,0.0,0.0,90,0.00,CLR,,0.00,WeatherDisplay:10.37,2013-09-23 06:11:00,
2013-09-23 02:16:00,49.1,46.3,29.99,West,261,0.0,0.0,90,0.00,CLR,,0.00,WeatherDisplay:10.37,2013-09-23 06:16:00,
2013-09-23 02:21:00,49.0,46.2,29.99,West,261,0.0,0.0,90,0.00,CLR,,0.00,WeatherDisplay:10.37,2013-09-23 06:21:00,
2013-09-23 02:26:00,49.1,46.3,29.99,West,261,0.0,0.0,90,0.00,CLR,,0.00,WeatherDisplay:10.37,2013-09-23 06:26:00,
2013-09-23 02:31:00,49.2,46.4,29.99,West,261,0.0,0.0,90,0.00,CLR,,0.00,WeatherDisplay:10.37,2013-09-23 06:31:00,
2013-09-23 02:36:00,49.3,46.8,29.99,West,261,0.0,0.0,91,0.00,CLR,,0.00,WeatherDisplay:10.37,2013-09-23 06:36:00,
2013-09-23 02:41:00,49.3,46.8,29.99,West,261,0.0,0.0,91,0.00,CLR,,0.00,WeatherDisplay:10.37,2013-09-23 06:41:00,
2013-09-23 02:46:00,49.3,46.8,29.99,West,261,0.0,0.0,91,0.00,CLR,,0.00,WeatherDisplay:10.37,2013-09-23 06:46:00,
2013-09-23 02:51:00,49.3,46.8,29.99,West,261,0.0,0.0,91,0.00,CLR,,0.00,WeatherDisplay:10.37,2013-09-23 06:51:00,
2013-09-23 02:56:00,49.2,46.7,29.99,West,261,0.0,0.0,91,0.00,CLR,,0.00,WeatherDisplay:10.37,2013-09-23 06:56:00,
2013-09-23 03:01:00,49.3,46.8,29.99,West,261,0.0,0.0,91,0.00,CLR,,0.00,WeatherDisplay:10.37,2013-09-23 07:01:00,
2013-09-23 03:06:00,49.3,47.1,29.99,West,261,0.0,0.0,92,0.00,CLR,,0.00,WeatherDisplay:10.37,2013-09-23 07:06:00,
2013-09-23 03:11:00,49.3,47.1,29.99,West,261,0.0,0.0,92,0.00,CLR,,0.00,WeatherDisplay:10.37,2013-09-23 07:11:00,
2013-09-23 03:16:00,49.2,46.7,29.99,West,261,0.0,0.0,91,0.00,CLR,,0.00,WeatherDisplay:10.37,2013-09-23 07:16:00,
2013-09-23 03:21:00,49.2,46.7,29.99,West,261,0.0,0.0,91,0.00,CLR,,0.00,WeatherDisplay:10.37,2013-09-23 07:21:00,
2013-09-23 03:26:00,49.1,46.6,30.00,WNW,287,0.0,0.0,91,0.00,CLR,,0.00,WeatherDisplay:10.37,2013-09-23 07:26:00,
2013-09-23 03:31:00,49.2,46.7,30.00,WNW,288,0.0,0.0,91,0.00,CLR,,0.00,WeatherDisplay:10.37,2013-09-23 07:31:00,
2013-09-23 03:36:00,49.1,46.3,29.99,WNW,288,0.0,0.0,90,0.00,CLR,,0.00,WeatherDisplay:10.37,2013-09-23 07:36:00,
2013-09-23 03:41:00,49.1,46.0,30.00,WNW,288,0.0,0.0,89,0.00,CLR,,0.00,WeatherDisplay:10.37,2013-09-23 07:41:00,
2013-09-23 03:46:00,49.1,46.0,30.00,WNW,288,0.0,0.0,89,0.00,CLR,,0.00,WeatherDisplay:10.37,2013-09-23 07:46:00,
2013-09-23 03:51:00,49.2,46.4,30.00,WNW,288,0.0,0.0,90,0.00,CLR,,0.00,WeatherDisplay:10.37,2013-09-23 07:51:00,
2013-09-23 03:56:00,49.3,46.5,30.00,WNW,287,0.0,0.0,90,0.00,CLR,,0.00,WeatherDisplay:10.37,2013-09-23 07:56:00,
2013-09-23 04:01:00,49.3,46.5,30.00,WNW,288,0.0,0.0,90,0.00,CLR,,0.00,WeatherDisplay:10.37,2013-09-23 08:01:00,
2013-09-23 04:06:00,49.3,46.5,30.01,WNW,288,0.0,0.0,90,0.00,CLR,,0.00,WeatherDisplay:10.37,2013-09-23 08:06:00,
2013-09-23 04:11:00,49.2,46.1,30.01,WNW,288,0.0,0.0,89,0.00,CLR,,0.00,WeatherDisplay:10.37,2013-09-23 08:11:00,
2013-09-23 04:16:00,49.2,46.1,30.01,WNW,288,0.0,0.0,89,0.00,CLR,,0.00,WeatherDisplay:10.37,2013-09-23 08:16:00,
2013-09-23 04:21:00,49.2,45.8,30.01,WNW,288,0.0,0.0,88,0.00,CLR,,0.00,WeatherDisplay:10.37,2013-09-23 08:21:00,
2013-09-23 04:26:00,49.2,45.8,30.01,WNW,288,0.0,0.0,88,0.00,CLR,,0.00,WeatherDisplay:10.37,2013-09-23 08:26:00,
2013-09-23 04:31:00,49.2,45.8,30.01,WNW,288,0.0,0.0,88,0.00,CLR,,0.00,WeatherDisplay:10.37,2013-09-23 08:31:00,
2013-09-23 04:36:00,49.2,45.8,30.01,WNW,299,0.0,0.0,88,0.00,CLR,,0.00,WeatherDisplay:10.37,2013-09-23 08:36:00,
2013-09-23 04:41:00,49.1,45.4,30.01,WNW,299,0.0,0.0,87,0.00,CLR,,0.00,WeatherDisplay:10.37,2013-09-23 08:41:00,
2013-09-23 04:46:00,49.1,45.1,30.01,WNW,299,0.0,0.0,86,0.00,CLR,,0.00,WeatherDisplay:10.37,2013-09-23 08:46:00,
2013-09-23 04:51:00,49.2,45.2,30.01,WNW,299,0.0,0.0,86,0.00,CLR,,0.00,WeatherDisplay:10.37,2013-09-23 08:51:00,
2013-09-23 04:56:00,49.2,44.9,30.01,NW,317,0.0,0.0,85,0.00,CLR,,0.00,WeatherDisplay:10.37,2013-09-23 08:56:00,
2013-09-23 05:01:00,49.4,45.4,30.01,NW,317,0.0,0.0,86,0.00,CLR,,0.00,WeatherDisplay:10.37,2013-09-23 09:01:00,
2013-09-23 05:06:00,49.4,45.4,30.01,NW,317,0.0,0.0,86,0.00,CLR,,0.00,WeatherDisplay:10.37,2013-09-23 09:06:00,
2013-09-23 05:11:00,49.4,44.8,30.02,NW,304,0.0,1.1,84,0.00,CLR,,0.00,WeatherDisplay:10.37,2013-09-23 09:11:00,
2013-09-23 05:16:00,49.4,44.8,30.02,NW,307,0.0,0.0,84,0.00,CLR,,0.00,WeatherDisplay:10.37,2013-09-23 09:16:00,
2013-09-23 05:21:00,49.3,44.0,30.02,NNW,348,0.0,0.0,82,0.00,CLR,,0.00,WeatherDisplay:10.37,2013-09-23 09:21:00,
2013-09-23 05:26:00,49.4,44.1,30.02,NNW,348,0.0,0.0,82,0.00,CLR,,0.00,WeatherDisplay:10.37,2013-09-23 09:26:00,
2013-09-23 05:31:00,49.4,44.1,30.02,NNW,348,0.0,0.0,82,0.00,CLR,,0.00,WeatherDisplay:10.37,2013-09-23 09:31:00,
2013-09-23 05:36:00,49.4,43.5,30.02,NNW,348,0.0,1.1,80,0.00,CLR,,0.00,WeatherDisplay:10.37,2013-09-23 09:36:00,
2013-09-23 05:41:00,49.3,43.7,30.02,NNW,348,0.0,0.0,81,0.00,CLR,,0.00,WeatherDisplay:10.37,2013-09-23 09:41:00,
2013-09-23 05:46:00,49.2,43.6,30.02,NNW,348,0.0,0.0,81,0.00,CLR,,0.00,WeatherDisplay:10.37,2013-09-23 09:46:00,
2013-09-23 05:51:00,49.2,43.6,30.02,NNW,348,0.0,0.0,81,0.00,CLR,,0.00,WeatherDisplay:10.37,2013-09-23 09:51:00,
2013-09-23 05:56:00,49.2,43.6,30.02,NNW,348,0.0,0.0,81,0.00,CLR,,0.00,WeatherDisplay:10.37,2013-09-23 09:56:00,
2013-09-23 06:01:00,49.1,43.5,30.03,NNW,348,0.0,1.1,81,0.00,CLR,,0.00,WeatherDisplay:10.37,2013-09-23 10:01:00,
2013-09-23 06:06:00,49.1,43.8,30.03,NNW,348,0.0,0.0,82,0.00,CLR,,0.00,WeatherDisplay:10.37,2013-09-23 10:06:00,
2013-09-23 06:11:00,49.0,43.4,30.03,NNW,346,0.0,0.0,81,0.00,CLR,,0.00,WeatherDisplay:10.37,2013-09-23 10:11:00,
2013-09-23 06:16:00,49.0,44.1,30.03,NNW,345,0.0,0.0,83,0.00,CLR,,0.00,WeatherDisplay:10.37,2013-09-23 10:16:00,
2013-09-23 06:21:00,49.0,43.7,30.03,NNW,346,0.0,0.0,82,0.00,CLR,,0.00,WeatherDisplay:10.37,2013-09-23 10:21:00,
2013-09-23 06:26:00,48.9,43.6,30.03,NNW,346,0.0,0.0,82,0.00,CLR,,0.00,WeatherDisplay:10.37,2013-09-23 10:26:00,
2013-09-23 06:31:00,48.9,44.0,30.03,NNW,346,0.0,0.0,83,0.00,CLR,,0.00,WeatherDisplay:10.37,2013-09-23 10:31:00,
2013-09-23 06:36:00,48.8,43.5,30.03,NNW,346,0.0,0.0,82,0.00,CLR,,0.00,WeatherDisplay:10.37,2013-09-23 10:36:00,
2013-09-23 06:41:00,48.7,43.5,30.03,NNW,346,0.0,0.0,82,0.00,CLR,,0.00,WeatherDisplay:10.37,2013-09-23 10:41:00,
2013-09-23 06:46:00,48.7,43.5,30.04,NNW,345,0.0,0.0,82,0.00,CLR,,0.00,WeatherDisplay:10.37,2013-09-23 10:46:00,
2013-09-23 06:51:00,48.6,43.7,30.04,NNW,345,0.0,0.0,83,0.00,CLR,,0.00,WeatherDisplay:10.37,2013-09-23 10:51:00,
2013-09-23 06:56:00,48.6,43.7,30.04,NNW,346,0.0,0.0,83,0.00,CLR,,0.00,WeatherDisplay:10.37,2013-09-23 10:56:00,
2013-09-23 07:01:00,48.5,43.6,30.04,NNW,346,0.0,0.0,83,0.00,CLR,,0.00,WeatherDisplay:10.37,2013-09-23 11:01:00,
2013-09-23 07:06:00,48.4,43.2,30.04,NNW,345,0.0,0.0,82,0.00,CLR,,0.00,WeatherDisplay:10.37,2013-09-23 11:06:00,
2013-09-23 07:11:00,48.4,43.5,30.04,NNW,346,0.0,0.0,83,0.00,CLR,,0.00,WeatherDisplay:10.37,2013-09-23 11:11:00,
2013-09-23 07:16:00,48.4,43.2,30.05,NNW,346,0.0,0.0,82,0.00,CLR,,0.00,WeatherDisplay:10.37,2013-09-23 11:16:00,
2013-09-23 07:21:00,48.3,43.1,30.05,NNW,346,0.0,0.0,82,0.00,CLR,,0.00,WeatherDisplay:10.37,2013-09-23 11:21:00,
2013-09-23 07:26:00,48.3,43.1,30.05,NNW,345,0.0,0.0,82,0.00,CLR,,0.00,WeatherDisplay:10.37,2013-09-23 11:26:00,
2013-09-23 07:31:00,48.3,43.1,30.05,NNW,346,0.0,0.0,82,0.00,CLR,,0.00,WeatherDisplay:10.37,2013-09-23 11:31:00,
2013-09-23 07:36:00,48.3,43.1,30.06,NNW,346,0.0,0.0,82,0.00,CLR,,0.00,WeatherDisplay:10.37,2013-09-23 11:36:00,
2013-09-23 07:41:00,48.4,43.5,30.06,NNW,346,0.0,0.0,83,0.00,CLR,,0.00,WeatherDisplay:10.37,2013-09-23 11:41:00,
2013-09-23 07:46:00,48.6,44.0,30.06,NNW,345,0.0,0.0,84,0.00,CLR,,0.00,WeatherDisplay:10.37,2013-09-23 11:46:00,
2013-09-23 07:51:00,48.6,43.7,30.06,NNW,345,0.0,0.0,83,0.00,CLR,,0.00,WeatherDisplay:10.37,2013-09-23 11:51:00,
2013-09-23 07:56:00,48.6,43.7,30.06,NNW,346,0.0,0.0,83,0.00,CLR,,0.00,WeatherDisplay:10.37,2013-09-23 11:56:00,
2013-09-23 08:01:00,48.6,43.4,30.06,NNW,345,0.0,0.0,82,0.00,CLR,,0.00,WeatherDisplay:10.37,2013-09-23 12:01:00,
2013-09-23 08:06:00,48.6,44.0,30.06,NNW,345,0.0,0.0,84,0.00,CLR,,0.00,WeatherDisplay:10.37,2013-09-23 12:06:00,
2013-09-23 08:11:00,48.6,44.0,30.06,NNW,346,0.0,0.0,84,0.00,CLR,,0.00,WeatherDisplay:10.37,2013-09-23 12:11:00,
2013-09-23 08:16:00,48.6,44.0,30.06,NNW,346,0.0,0.0,84,0.00,CLR,,0.00,WeatherDisplay:10.37,2013-09-23 12:16:00,
2013-09-23 08:21:00,48.7,44.1,30.06,NNW,346,0.0,0.0,84,0.00,CLR,,0.00,WeatherDisplay:10.37,2013-09-23 12:21:00,
2013-09-23 08:26:00,48.8,44.5,30.07,NNW,327,0.0,1.1,85,0.00,CLR,,0.00,WeatherDisplay:10.37,2013-09-23 12:26:00,
2013-09-23 08:31:00,48.9,44.0,30.06,NNW,327,0.0,0.0,83,0.00,CLR,,0.00,WeatherDisplay:10.37,2013-09-23 12:31:00,
2013-09-23 08:36:00,49.1,44.2,30.07,NNW,327,0.0,0.0,83,0.00,CLR,,0.00,WeatherDisplay:10.37,2013-09-23 12:36:00,
2013-09-23 08:41:00,49.2,43.9,30.07,NNW,327,0.0,0.0,82,0.00,CLR,,0.00,WeatherDisplay:10.37,2013-09-23 12:41:00,
2013-09-23 08:46:00,49.4,44.1,30.07,NNW,346,0.0,0.0,82,0.00,CLR,,0.00,WeatherDisplay:10.37,2013-09-23 12:46:00,
2013-09-23 08:51:00,49.4,43.2,30.07,WNW,294,0.0,0.0,79,0.00,CLR,,0.00,WeatherDisplay:10.37,2013-09-23 12:51:00,
2013-09-23 08:56:00,49.5,43.6,30.07,WNW,294,0.0,0.0,80,0.00,CLR,,0.00,WeatherDisplay:10.37,2013-09-23 12:56:00,
2013-09-23 09:01:00,49.7,44.4,30.07,WNW,294,0.0,0.0,82,0.00,CLR,,0.00,WeatherDisplay:10.37,2013-09-23 13:01:00,
2013-09-23 09:06:00,49.7,43.5,30.07,North,360,0.1,2.3,79,0.00,CLR,,0.00,WeatherDisplay:10.37,2013-09-23 13:06:00,
2013-09-23 09:11:00,49.7,43.5,30.07,North,349,0.0,0.0,79,0.00,CLR,,0.00,WeatherDisplay:10.37,2013-09-23 13:11:00,
2013-09-23 09:16:00,49.7,43.5,30.07,North,349,0.0,0.0,79,0.00,CLR,,0.00,WeatherDisplay:10.37,2013-09-23 13:16:00,
2013-09-23 09:21:00,49.8,43.2,30.07,North,349,0.0,0.0,78,0.00,CLR,,0.00,WeatherDisplay:10.37,2013-09-23 13:21:00,
2013-09-23 09:26:00,49.9,43.3,30.07,North,350,1.2,3.5,78,0.00,CLR,,0.00,WeatherDisplay:10.37,2013-09-23 13:26:00,
2013-09-23 09:31:00,50.1,43.2,30.08,NNW,332,0.4,2.3,77,0.00,CLR,,0.00,WeatherDisplay:10.37,2013-09-23 13:31:00,
2013-09-23 09:36:00,50.1,42.8,30.08,NNW,348,0.1,1.1,76,0.00,CLR,,0.00,WeatherDisplay:10.37,2013-09-23 13:36:00,
2013-09-23 09:41:00,50.1,42.5,30.08,NNW,338,0.2,1.1,75,0.00,CLR,,0.00,WeatherDisplay:10.37,2013-09-23 13:41:00,
2013-09-23 09:46:00,50.3,43.7,30.08,NNW,338,0.0,0.0,78,0.00,CLR,,0.00,WeatherDisplay:10.37,2013-09-23 13:46:00,
2013-09-23 09:51:00,50.4,43.1,30.08,NNW,331,0.0,0.0,76,0.00,CLR,,0.00,WeatherDisplay:10.37,2013-09-23 13:51:00,
2013-09-23 09:56:00,50.4,42.4,30.08,North,355,0.8,2.3,74,0.00,CLR,,0.00,WeatherDisplay:10.37,2013-09-23 13:56:00,
2013-09-23 10:01:00,50.5,42.9,30.09,NE,45,0.4,2.3,75,0.00,CLR,,0.00,WeatherDisplay:10.37,2013-09-23 14:01:00,
2013-09-23 10:06:00,50.5,42.5,30.09,North,350,0.3,1.1,74,0.00,CLR,,0.00,WeatherDisplay:10.37,2013-09-23 14:06:00,
2013-09-23 10:11:00,50.5,43.2,30.09,North,350,0.0,0.0,76,0.00,CLR,,0.00,WeatherDisplay:10.37,2013-09-23 14:11:00,
2013-09-23 10:16:00,50.5,42.9,30.09,NNW,346,0.4,2.3,75,0.00,CLR,,0.00,WeatherDisplay:10.37,2013-09-23 14:16:00,
2013-09-23 10:21:00,50.6,43.3,30.09,WNW,292,0.1,1.1,76,0.00,CLR,,0.00,WeatherDisplay:10.37,2013-09-23 14:21:00,
2013-09-23 10:26:00,50.7,43.8,30.09,NW,315,0.1,1.1,77,0.00,CLR,,0.00,WeatherDisplay:10.37,2013-09-23 14:26:00,
2013-09-23 10:31:00,50.8,43.5,30.09,NW,324,0.3,2.3,76,0.00,CLR,,0.00,WeatherDisplay:10.37,2013-09-23 14:31:00,
2013-09-23 10:36:00,51.0,43.7,30.09,North,5,0.3,1.1,76,0.00,CLR,,0.00,WeatherDisplay:10.37,2013-09-23 14:36:00,
2013-09-23 10:41:00,50.9,42.6,30.09,North,355,0.1,1.1,73,0.00,CLR,,0.00,WeatherDisplay:10.37,2013-09-23 14:41:00,
2013-09-23 10:46:00,50.9,42.6,30.09,NNW,348,1.4,3.5,73,0.00,CLR,,0.00,WeatherDisplay:10.37,2013-09-23 14:46:00,
2013-09-23 10:51:00,50.9,42.6,30.09,NNW,335,0.3,1.1,73,0.00,CLR,,0.00,WeatherDisplay:10.37,2013-09-23 14:51:00,
2013-09-23 10:56:00,50.9,42.6,30.09,North,355,0.1,1.1,73,0.00,CLR,,0.00,WeatherDisplay:10.37,2013-09-23 14:56:00,
2013-09-23 11:01:00,51.1,42.7,30.10,North,5,2.0,4.6,73,0.00,CLR,,0.00,WeatherDisplay:10.37,2013-09-23 15:01:00,
2013-09-23 11:06:00,51.3,42.9,30.10,NNW,327,1.5,3.5,73,0.00,CLR,,0.00,WeatherDisplay:10.37,2013-09-23 15:06:00,
2013-09-23 11:11:00,51.5,43.8,30.10,NNW,344,0.0,0.0,75,0.00,CLR,,0.00,WeatherDisplay:10.37,2013-09-23 15:11:00,
2013-09-23 11:16:00,51.7,43.7,30.10,NNW,338,0.3,2.3,74,0.00,CLR,,0.00,WeatherDisplay:10.37,2013-09-23 15:16:00,
2013-09-23 11:21:00,51.6,43.2,30.10,NNW,345,1.6,4.6,73,0.00,CLR,,0.00,WeatherDisplay:10.37,2013-09-23 15:21:00,
2013-09-23 11:26:00,51.5,42.8,30.10,North,5,0.0,1.1,72,0.00,CLR,,0.00,WeatherDisplay:10.37,2013-09-23 15:26:00,
2013-09-23 11:31:00,51.5,42.4,30.10,NW,326,0.0,0.0,71,0.00,CLR,,0.00,WeatherDisplay:10.37,2013-09-23 15:31:00,
2013-09-23 11:36:00,51.5,42.4,30.10,North,360,2.1,4.6,71,0.00,CLR,,0.00,WeatherDisplay:10.37,2013-09-23 15:36:00,
2013-09-23 11:41:00,51.4,42.3,30.11,NNW,330,0.0,2.0,71,0.00,CLR,,0.00,WeatherDisplay:10.37,2013-09-23 15:41:00,
2013-09-23 11:46:00,51.3,42.2,30.11,NNW,329,0.7,2.3,71,0.00,CLR,,0.00,WeatherDisplay:10.37,2013-09-23 15:46:00,
2013-09-23 11:51:00,51.2,42.8,30.11,NNW,344,0.0,0.0,73,0.00,CLR,,0.00,WeatherDisplay:10.37,2013-09-23 15:51:00,
2013-09-23 11:56:00,51.7,44.0,30.11,NNW,337,0.4,2.3,75,0.00,CLR,,0.00,WeatherDisplay:10.37,2013-09-23 15:56:00,
2013-09-23 12:01:00,52.1,43.3,30.10,NW,308,0.0,0.0,72,0.00,CLR,,0.00,WeatherDisplay:10.37,2013-09-23 16:01:00,
2013-09-23 12:06:00,52.1,43.0,30.10,North,355,0.7,3.5,71,0.00,CLR,,0.00,WeatherDisplay:10.37,2013-09-23 16:06:00,
2013-09-23 12:11:00,51.8,42.3,30.10,NW,325,0.5,2.0,70,0.00,CLR,,0.00,WeatherDisplay:10.37,2013-09-23 16:11:00,
2013-09-23 12:16:00,51.8,43.1,30.10,NE,44,1.8,3.5,72,0.00,CLR,,0.00,WeatherDisplay:10.37,2013-09-23 16:16:00,
2013-09-23 12:21:00,52.1,43.0,30.10,NNE,24,0.6,2.3,71,0.00,CLR,,0.00,WeatherDisplay:10.37,2013-09-23 16:21:00,
2013-09-23 12:26:00,52.3,42.8,30.10,NNW,331,0.7,3.5,70,0.00,CLR,,0.00,WeatherDisplay:10.37,2013-09-23 16:26:00,
2013-09-23 12:31:00,52.4,42.5,30.10,North,355,0.9,2.3,69,0.00,CLR,,0.00,WeatherDisplay:10.37,2013-09-23 16:31:00,
2013-09-23 12:36:00,52.7,43.6,30.10,NW,311,0.6,3.5,71,0.00,CLR,,0.00,WeatherDisplay:10.37,2013-09-23 16:36:00,
2013-09-23 12:41:00,52.8,42.1,30.10,North,5,0.4,3.5,67,0.00,CLR,,0.00,WeatherDisplay:10.37,2013-09-23 16:41:00,
2013-09-23 12:46:00,53.0,42.7,30.10,NW,323,0.7,3.5,68,0.00,CLR,,0.00,WeatherDisplay:10.37,2013-09-23 16:46:00,
2013-09-23 12:51:00,52.9,42.2,30.10,SW,223,0.8,3.5,67,0.00,CLR,,0.00,WeatherDisplay:10.37,2013-09-23 16:51:00,
2013-09-23 12:56:00,53.2,43.3,30.10,North,349,2.0,4.6,69,0.00,CLR,,0.00,WeatherDisplay:10.37,2013-09-23 16:56:00,
2013-09-23 13:01:00,53.3,43.0,30.10,NW,309,0.7,2.3,68,0.00,CLR,,0.00,WeatherDisplay:10.37,2013-09-23 17:01:00,
2013-09-23 13:06:00,53.4,42.7,30.10,NNW,327,0.1,1.1,67,0.00,CLR,,0.00,WeatherDisplay:10.37,2013-09-23 17:06:00,
2013-09-23 13:11:00,53.5,43.2,30.09,NNE,17,1.4,3.5,68,0.00,CLR,,0.00,WeatherDisplay:10.37,2013-09-23 17:11:00,
2013-09-23 13:16:00,53.7,43.4,30.09,North,350,0.3,2.3,68,0.00,CLR,,0.00,WeatherDisplay:10.37,2013-09-23 17:16:00,
2013-09-23 13:21:00,53.8,42.7,30.09,WSW,256,0.1,1.1,66,0.00,CLR,,0.00,WeatherDisplay:10.37,2013-09-23 17:21:00,
2013-09-23 13:26:00,54.1,43.8,30.09,WNW,289,0.5,1.1,68,0.00,CLR,,0.00,WeatherDisplay:10.37,2013-09-23 17:26:00,
2013-09-23 13:31:00,54.3,44.3,30.09,NNW,342,0.6,2.3,69,0.00,CLR,,0.00,WeatherDisplay:10.37,2013-09-23 17:31:00,
2013-09-23 13:36:00,54.2,43.5,30.09,North,360,0.5,2.3,67,0.00,CLR,,0.00,WeatherDisplay:10.37,2013-09-23 17:36:00,
2013-09-23 13:41:00,54.2,43.1,30.09,NNW,342,0.0,1.1,66,0.00,CLR,,0.00,WeatherDisplay:10.37,2013-09-23 17:41:00,
2013-09-23 13:46:00,54.1,43.4,30.09,North,355,0.1,1.1,67,0.00,CLR,,0.00,WeatherDisplay:10.37,2013-09-23 17:46:00,
2013-09-23 13:51:00,54.1,43.4,30.09,ENE,59,0.0,0.0,67,0.00,CLR,,0.00,WeatherDisplay:10.37,2013-09-23 17:51:00,
2013-09-23 13:56:00,54.2,43.5,30.08,NNW,340,4.3,8.1,67,0.00,CLR,,0.00,WeatherDisplay:10.37,2013-09-23 17:56:00,
2013-09-23 14:01:00,54.1,43.8,30.08,North,349,0.0,0.0,68,0.00,,,0.00,WeatherDisplay:10.37,2013-09-23 18:01:00,
2013-09-23 14:06:00,54.2,43.9,30.08,North,5,0.0,1.0,68,0.00,,,0.00,WeatherDisplay:10.37,2013-09-23 18:06:00,
2013-09-23 14:11:00,54.4,44.1,30.08,North,5,0.6,1.1,68,0.00,,,0.00,WeatherDisplay:10.37,2013-09-23 18:11:00,
2013-09-23 14:16:00,54.5,43.4,30.08,North,360,0.8,3.5,66,0.00,,,0.00,WeatherDisplay:10.37,2013-09-23 18:16:00,
2013-09-23 14:21:00,54.6,44.2,30.08,NNW,338,0.0,3.5,68,0.00,,,0.00,WeatherDisplay:10.37,2013-09-23 18:21:00,
2013-09-23 14:26:00,54.8,44.0,30.08,SW,217,0.2,1.1,67,0.00,,,0.00,WeatherDisplay:10.37,2013-09-23 18:26:00,
2013-09-23 14:31:00,55.0,43.8,30.08,NW,320,0.1,1.1,66,0.00,,,0.00,WeatherDisplay:10.37,2013-09-23 18:31:00,
2013-09-23 14:36:00,55.2,44.8,30.08,NE,44,1.5,3.5,68,0.00,,,0.00,WeatherDisplay:10.37,2013-09-23 18:36:00,
2013-09-23 14:41:00,55.4,43.8,30.08,North,5,1.7,5.0,65,0.00,,,0.00,WeatherDisplay:10.37,2013-09-23 18:41:00,
2013-09-23 14:46:00,55.3,44.1,30.08,NE,38,0.0,2.3,66,0.00,,,0.00,WeatherDisplay:10.37,2013-09-23 18:46:00,
2013-09-23 14:51:00,55.3,44.5,30.08,NW,313,1.3,2.0,67,0.00,,,0.00,WeatherDisplay:10.37,2013-09-23 18:51:00,
2013-09-23 14:56:00,55.3,44.1,30.08,NE,54,0.5,3.5,66,0.00,,,0.00,WeatherDisplay:10.37,2013-09-23 18:56:00,
2013-09-23 15:01:00,55.4,45.0,30.08,NNE,17,0.0,2.3,68,0.00,,,0.00,WeatherDisplay:10.37,2013-09-23 19:01:00,
2013-09-23 15:06:00,55.5,44.7,30.08,North,355,0.7,1.1,67,0.00,,,0.00,WeatherDisplay:10.37,2013-09-23 19:06:00,
2013-09-23 15:11:00,55.6,44.8,30.07,NW,321,0.2,1.1,67,0.00,,,0.00,WeatherDisplay:10.37,2013-09-23 19:11:00,
2013-09-23 15:16:00,55.8,45.0,30.07,South,188,0.3,2.3,67,0.00,,,0.00,WeatherDisplay:10.37,2013-09-23 19:16:00,
2013-09-23 15:21:00,56.0,45.6,30.07,NNW,338,0.6,3.5,68,0.00,,,0.00,WeatherDisplay:10.37,2013-09-23 19:21:00,
2013-09-23 15:26:00,56.0,45.2,30.07,NNE,13,0.0,0.0,67,0.00,,,0.00,WeatherDisplay:10.37,2013-09-23 19:26:00,
2013-09-23 15:31:00,56.2,45.8,30.07,NW,322,0.9,3.5,68,0.00,,,0.00,WeatherDisplay:10.37,2013-09-23 19:31:00,
2013-09-23 15:36:00,56.1,44.9,30.07,NNE,22,0.3,2.0,66,0.00,,,0.00,WeatherDisplay:10.37,2013-09-23 19:36:00,
2013-09-23 15:41:00,56.1,44.9,30.07,NW,313,0.4,1.1,66,0.00,,,0.00,WeatherDisplay:10.37,2013-09-23 19:41:00,
2013-09-23 15:46:00,56.3,45.9,30.07,NNE,15,0.6,2.3,68,0.00,,,0.00,WeatherDisplay:10.37,2013-09-23 19:46:00,
2013-09-23 15:51:00,56.4,44.8,30.07,North,350,0.9,2.3,65,0.00,,,0.00,WeatherDisplay:10.37,2013-09-23 19:51:00,
2013-09-23 15:56:00,56.3,44.7,30.07,NNW,340,1.6,3.5,65,0.00,,,0.00,WeatherDisplay:10.37,2013-09-23 19:56:00,
2013-09-23 16:01:00,56.4,45.2,30.07,NNW,344,0.5,1.1,66,0.00,,,0.00,WeatherDisplay:10.37,2013-09-23 20:01:00,
2013-09-23 16:06:00,56.6,45.0,30.07,North,355,0.1,2.3,65,0.00,,,0.00,WeatherDisplay:10.37,2013-09-23 20:06:00,
2013-09-23 16:11:00,56.9,45.7,30.07,North,355,0.0,0.0,66,0.00,,,0.00,WeatherDisplay:10.37,2013-09-23 20:11:00,
2013-09-23 16:16:00,57.1,45.4,30.06,NNW,345,0.0,0.0,65,0.00,,,0.00,WeatherDisplay:10.37,2013-09-23 20:16:00,
2013-09-23 16:21:00,57.2,45.1,30.06,NNW,339,0.1,2.3,64,0.00,,,0.00,WeatherDisplay:10.37,2013-09-23 20:21:00,
2013-09-23 16:26:00,57.6,45.9,30.06,NW,304,0.2,1.1,65,0.00,,,0.00,WeatherDisplay:10.37,2013-09-23 20:26:00,
2013-09-23 16:31:00,58.1,46.8,30.06,NNE,31,0.0,1.1,66,0.00,,,0.00,WeatherDisplay:10.37,2013-09-23 20:31:00,
2013-09-23 16:36:00,59.0,46.8,30.06,NNE,32,0.3,2.0,64,0.00,,,0.00,WeatherDisplay:10.37,2013-09-23 20:36:00,
2013-09-23 16:41:00,59.6,46.6,30.06,NNE,32,0.0,0.0,62,0.00,,,0.00,WeatherDisplay:10.37,2013-09-23 20:41:00,
2013-09-23 16:46:00,59.7,47.5,30.06,North,355,0.3,2.3,64,0.00,,,0.00,WeatherDisplay:10.37,2013-09-23 20:46:00,
2013-09-23 16:51:00,59.0,45.6,30.06,North,355,1.6,3.0,61,0.00,,,0.00,WeatherDisplay:10.37,2013-09-23 20:51:00,
2013-09-23 16:56:00,59.0,46.0,30.07,North,350,0.0,0.0,62,0.00,,,0.00,WeatherDisplay:10.37,2013-09-23 20:56:00,
2013-09-23 17:01:00,59.0,46.4,30.07,NNW,341,0.9,2.3,63,0.00,,,0.00,WeatherDisplay:10.37,2013-09-23 21:01:00,
2013-09-23 17:06:00,58.6,45.6,30.07,NNW,336,0.4,4.6,62,0.00,,,0.00,WeatherDisplay:10.37,2013-09-23 21:06:00,
2013-09-23 17:11:00,58.3,45.8,30.07,NNW,336,0.0,1.1,63,0.00,,,0.00,WeatherDisplay:10.37,2013-09-23 21:11:00,
2013-09-23 17:16:00,58.1,45.1,30.07,North,355,0.0,0.0,62,0.00,,,0.00,WeatherDisplay:10.37,2013-09-23 21:16:00,
2013-09-23 17:21:00,58.4,45.4,30.07,NNW,335,0.0,1.1,62,0.00,,,0.00,WeatherDisplay:10.37,2013-09-23 21:21:00,
2013-09-23 17:26:00,58.2,43.9,30.08,NNW,345,0.6,3.5,59,0.00,,,0.00,WeatherDisplay:10.37,2013-09-23 21:26:00,
2013-09-23 17:31:00,57.9,45.8,30.08,NNW,346,0.0,0.0,64,0.00,,,0.00,WeatherDisplay:10.37,2013-09-23 21:31:00,
2013-09-23 17:36:00,57.5,45.4,30.08,NNW,345,0.9,3.0,64,0.00,,,0.00,WeatherDisplay:10.37,2013-09-23 21:36:00,
2013-09-23 17:41:00,56.7,45.1,30.08,North,350,0.0,0.0,65,0.00,,,0.00,WeatherDisplay:10.37,2013-09-23 21:41:00,
2013-09-23 17:46:00,56.0,44.8,30.08,North,350,0.0,0.0,66,0.00,,,0.00,WeatherDisplay:10.37,2013-09-23 21:46:00,
2013-09-23 17:51:00,55.3,44.9,30.08,North,349,0.0,0.0,68,0.00,,,0.00,WeatherDisplay:10.37,2013-09-23 21:51:00,
2013-09-23 17:56:00,54.8,44.4,30.08,North,350,0.0,0.0,68,0.00,,,0.00,WeatherDisplay:10.37,2013-09-23 21:56:00,
2013-09-23 18:01:00,54.6,44.6,30.08,North,350,0.0,0.0,69,0.00,,,0.00,WeatherDisplay:10.37,2013-09-23 22:01:00,
2013-09-23 18:06:00,54.3,44.3,30.08,North,350,0.0,0.0,69,0.00,,,0.00,WeatherDisplay:10.37,2013-09-23 22:06:00,
2013-09-23 18:11:00,54.0,44.1,30.08,North,349,0.0,0.0,69,0.00,,,0.00,WeatherDisplay:10.37,2013-09-23 22:11:00,
2013-09-23 18:16:00,53.9,44.3,30.08,North,350,0.0,0.0,70,0.00,,,0.00,WeatherDisplay:10.37,2013-09-23 22:16:00,
2013-09-23 18:21:00,53.8,45.0,30.08,North,350,0.0,0.0,72,0.00,,,0.00,WeatherDisplay:10.37,2013-09-23 22:21:00,
2013-09-23 18:26:00,53.7,45.2,30.08,North,350,0.0,0.0,73,0.00,,,0.00,WeatherDisplay:10.37,2013-09-23 22:26:00,
2013-09-23 18:31:00,53.6,45.2,30.08,North,350,0.0,0.0,73,0.00,,,0.00,WeatherDisplay:10.37,2013-09-23 22:31:00,
2013-09-23 18:36:00,53.4,45.7,30.08,North,349,0.0,0.0,75,0.00,,,0.00,WeatherDisplay:10.37,2013-09-23 22:36:00,
2013-09-23 18:41:00,53.1,45.4,30.08,North,350,0.0,0.0,75,0.00,,,0.00,WeatherDisplay:10.37,2013-09-23 22:41:00,
2013-09-23 18:46:00,52.6,44.9,30.08,North,350,0.0,0.0,75,0.00,,,0.00,WeatherDisplay:10.37,2013-09-23 22:46:00,
2013-09-23 18:51:00,52.3,45.6,30.08,North,349,0.0,0.0,78,0.00,,,0.00,WeatherDisplay:10.37,2013-09-23 22:51:00,
2013-09-23 18:56:00,52.1,45.4,30.08,North,349,0.0,0.0,78,0.00,,,0.00,WeatherDisplay:10.37,2013-09-23 22:56:00,
2013-09-23 19:01:00,51.9,45.6,30.08,North,350,0.0,0.0,79,0.00,,,0.00,WeatherDisplay:10.37,2013-09-23 23:01:00,
2013-09-23 19:06:00,51.7,45.4,30.08,North,350,0.0,0.0,79,0.00,,,0.00,WeatherDisplay:10.37,2013-09-23 23:06:00,
2013-09-23 19:11:00,51.5,45.5,30.08,North,350,0.0,0.0,80,0.00,,,0.00,WeatherDisplay:10.37,2013-09-23 23:11:00,
2013-09-23 19:16:00,51.2,45.6,30.08,North,350,0.0,0.0,81,0.00,,,0.00,WeatherDisplay:10.37,2013-09-23 23:16:00,
2013-09-23 19:21:00,50.9,45.6,30.08,North,350,0.0,0.0,82,0.00,,,0.00,WeatherDisplay:10.37,2013-09-23 23:21:00,
2013-09-23 19:26:00,50.6,45.3,30.08,North,349,0.0,0.0,82,0.00,,,0.00,WeatherDisplay:10.37,2013-09-23 23:26:00,
2013-09-23 19:31:00,50.3,45.0,30.08,North,349,0.0,0.0,82,0.00,,,0.00,WeatherDisplay:10.37,2013-09-23 23:31:00,
2013-09-23 19:36:00,50.0,45.0,30.08,North,350,0.0,0.0,83,0.00,,,0.00,WeatherDisplay:10.37,2013-09-23 23:36:00,
2013-09-23 19:41:00,49.7,44.7,30.08,North,350,0.0,0.0,83,0.00,,,0.00,WeatherDisplay:10.37,2013-09-23 23:41:00,
2013-09-23 19:46:00,49.3,44.7,30.08,North,350,0.0,0.0,84,0.00,,,0.00,WeatherDisplay:10.37,2013-09-23 23:46:00,
2013-09-23 19:51:00,49.0,44.7,30.08,North,349,0.0,0.0,85,0.00,,,0.00,WeatherDisplay:10.37,2013-09-23 23:51:00,
2013-09-23 19:56:00,48.7,44.7,30.08,North,350,0.0,0.0,86,0.00,,,0.00,WeatherDisplay:10.37,2013-09-23 23:56:00,
2013-09-23 20:01:00,48.3,44.3,30.08,North,350,0.0,0.0,86,0.00,,,0.00,WeatherDisplay:10.37,2013-09-24 00:01:00,
2013-09-23 20:07:00,48.0,44.3,30.08,North,350,0.0,0.0,87,0.00,,,0.00,WeatherDisplay:10.37,2013-09-24 00:07:00,
2013-09-23 20:12:00,47.8,44.1,30.08,North,350,0.0,0.0,87,0.00,,,0.00,WeatherDisplay:10.37,2013-09-24 00:12:00,
2013-09-23 20:17:00,47.7,44.3,30.08,North,350,0.0,0.0,88,0.00,,,0.00,WeatherDisplay:10.37,2013-09-24 00:17:00,
2013-09-23 20:22:00,47.5,44.1,30.08,North,349,0.0,0.0,88,0.00,,,0.00,WeatherDisplay:10.37,2013-09-24 00:22:00,
2013-09-23 20:27:00,47.3,43.9,30.08,North,349,0.0,0.0,88,0.00,,,0.00,WeatherDisplay:10.37,2013-09-24 00:27:00,
2013-09-23 20:32:00,47.2,43.8,30.08,North,350,0.0,0.0,88,0.00,,,0.00,WeatherDisplay:10.37,2013-09-24 00:32:00,
2013-09-23 20:37:00,46.8,43.4,30.08,North,349,0.0,0.0,88,0.00,,,0.00,WeatherDisplay:10.37,2013-09-24 00:37:00,
2013-09-23 20:42:00,46.6,43.5,30.08,North,349,0.0,0.0,89,0.00,,,0.00,WeatherDisplay:10.37,2013-09-24 00:42:00,
2013-09-23 20:47:00,46.2,43.1,30.08,North,350,0.0,0.0,89,0.00,,,0.00,WeatherDisplay:10.37,2013-09-24 00:47:00,
2013-09-23 20:52:00,45.9,43.1,30.08,North,350,0.0,0.0,90,0.00,,,0.00,WeatherDisplay:10.37,2013-09-24 00:52:00,
2013-09-23 20:57:00,45.8,43.0,30.08,North,350,0.0,0.0,90,0.00,,,0.00,WeatherDisplay:10.37,2013-09-24 00:57:00,
2013-09-23 21:03:00,45.7,43.2,30.08,North,350,0.0,0.0,91,0.00,,,0.00,WeatherDisplay:10.37,2013-09-24 01:03:00,
2013-09-23 21:08:00,45.6,43.1,30.08,North,350,0.0,0.0,91,0.00,,,0.00,WeatherDisplay:10.37,2013-09-24 01:08:00,
2013-09-23 21:13:00,45.6,43.1,30.08,North,350,0.0,0.0,91,0.00,,,0.00,WeatherDisplay:10.37,2013-09-24 01:13:00,
2013-09-23 21:18:00,45.3,42.8,30.08,North,350,0.0,0.0,91,0.00,,,0.00,WeatherDisplay:10.37,2013-09-24 01:18:00,
2013-09-23 21:23:00,45.0,42.5,30.08,North,350,0.0,0.0,91,0.00,,,0.00,WeatherDisplay:10.37,2013-09-24 01:23:00,
2013-09-23 21:28:00,44.8,42.3,30.08,North,349,0.0,0.0,91,0.00,,,0.00,WeatherDisplay:10.37,2013-09-24 01:28:00,
2013-09-23 21:33:00,44.6,42.4,30.08,North,350,0.0,0.0,92,0.00,,,0.00,WeatherDisplay:10.37,2013-09-24 01:33:00,
2013-09-23 21:38:00,44.5,42.3,30.08,North,350,0.0,0.0,92,0.00,,,0.00,WeatherDisplay:10.37,2013-09-24 01:38:00,
2013-09-23 21:43:00,44.5,42.3,30.08,North,350,0.0,0.0,92,0.00,,,0.00,WeatherDisplay:10.37,2013-09-24 01:43:00,
2013-09-23 21:48:00,44.4,42.2,30.08,North,349,0.0,0.0,92,0.00,,,0.00,WeatherDisplay:10.37,2013-09-24 01:48:00,
2013-09-23 21:53:00,44.2,42.0,30.08,North,350,0.0,0.0,92,0.00,,,0.00,WeatherDisplay:10.37,2013-09-24 01:53:00,
2013-09-23 21:58:00,44.2,42.3,30.08,North,349,0.0,0.0,93,0.00,,,0.00,WeatherDisplay:10.37,2013-09-24 01:58:00,
2013-09-23 22:03:00,44.1,42.2,30.08,North,349,0.0,0.0,93,0.00,,,0.00,WeatherDisplay:10.37,2013-09-24 02:03:00,
2013-09-23 22:08:00,44.1,42.2,30.08,North,350,0.0,0.0,93,0.00,,,0.00,WeatherDisplay:10.37,2013-09-24 02:08:00,
2013-09-23 22:13:00,44.0,42.1,30.08,North,350,0.0,0.0,93,0.00,,,0.00,WeatherDisplay:10.37,2013-09-24 02:13:00,
2013-09-23 22:18:00,43.9,42.0,30.08,North,350,0.0,0.0,93,0.00,,,0.00,WeatherDisplay:10.37,2013-09-24 02:18:00,
2013-09-23 22:23:00,43.8,41.9,30.08,North,349,0.0,0.0,93,0.00,,,0.00,WeatherDisplay:10.37,2013-09-24 02:23:00,
2013-09-23 22:28:00,43.8,41.9,30.08,North,350,0.0,0.0,93,0.00,,,0.00,WeatherDisplay:10.37,2013-09-24 02:28:00,
2013-09-23 22:33:00,43.6,41.7,30.08,North,349,0.0,0.0,93,0.00,,,0.00,WeatherDisplay:10.37,2013-09-24 02:33:00,
2013-09-23 22:38:00,43.6,41.7,30.08,North,349,0.0,0.0,93,0.00,,,0.00,WeatherDisplay:10.37,2013-09-24 02:38:00,
2013-09-23 22:43:00,43.6,41.7,30.08,North,349,0.0,0.0,93,0.00,,,0.00,WeatherDisplay:10.37,2013-09-24 02:43:00,
2013-09-23 22:48:00,43.3,41.4,30.08,North,350,0.0,0.0,93,0.00,,,0.00,WeatherDisplay:10.37,2013-09-24 02:48:00,
2013-09-23 22:53:00,43.1,41.2,30.08,North,350,0.0,0.0,93,0.00,,,0.00,WeatherDisplay:10.37,2013-09-24 02:53:00,
2013-09-23 22:58:00,42.8,40.9,30.08,North,349,0.0,0.0,93,0.00,,,0.00,WeatherDisplay:10.37,2013-09-24 02:58:00,
2013-09-23 23:03:00,42.7,40.8,30.08,North,349,0.0,0.0,93,0.00,,,0.00,WeatherDisplay:10.37,2013-09-24 03:03:00,
2013-09-23 23:09:00,42.7,41.1,30.08,North,350,0.0,0.0,94,0.00,,,0.00,WeatherDisplay:10.37,2013-09-24 03:09:00,
2013-09-23 23:14:00,42.6,41.0,30.09,North,350,0.0,0.0,94,0.00,,,0.00,WeatherDisplay:10.37,2013-09-24 03:14:00,
2013-09-23 23:19:00,42.6,41.0,30.08,North,350,0.0,0.0,94,0.00,,,0.00,WeatherDisplay:10.37,2013-09-24 03:19:00,
2013-09-23 23:24:00,42.7,41.1,30.08,North,349,0.0,0.0,94,0.00,,,0.00,WeatherDisplay:10.37,2013-09-24 03:24:00,
2013-09-23 23:29:00,42.6,41.0,30.08,North,350,0.0,0.0,94,0.00,,,0.00,WeatherDisplay:10.37,2013-09-24 03:29:00,
2013-09-23 23:34:00,42.5,40.9,30.08,North,350,0.0,0.0,94,0.00,,,0.00,WeatherDisplay:10.37,2013-09-24 03:34:00,
2013-09-23 23:39:00,42.4,40.8,30.08,North,350,0.0,0.0,94,0.00,,,0.00,WeatherDisplay:10.37,2013-09-24 03:39:00,
2013-09-23 23:44:00,42.4,40.8,30.08,North,349,0.0,0.0,94,0.00,,,0.00,WeatherDisplay:10.37,2013-09-24 03:44:00,
2013-09-23 23:49:00,42.4,40.8,30.08,North,349,0.0,0.0,94,0.00,,,0.00,WeatherDisplay:10.37,2013-09-24 03:49:00,
2013-09-23 23:54:00,42.4,40.8,30.08,North,349,0.0,0.0,94,0.00,,,0.00,WeatherDisplay:10.37,2013-09-24 03:54:00,
2013-09-23 23:59:00,42.4,40.8,30.08,North,350,0.0,0.0,94,0.00,,,0.00,WeatherDisplay:10.37,2013-09-24 03:59:00,